Stations météo

réclame
Mon MeteoGroup
Vaestmarkum, Suède (2260): Température de l'air & dewpoint: 15.05.2018 19:00:00 - 21.05.2018 19:00:00 (CEST)Vaestmarkum, Suède (2260): Vitesse du vent & gusts: 15.05.2018 19:00:00 - 21.05.2018 19:00:00 (CEST)Vaestmarkum, Suède (2260): Direction du vent: 15.05.2018 19:00:00 - 21.05.2018 19:00:00 (CEST)Vaestmarkum, Suède (2260): reduced air pressure: 15.05.2018 19:00:00 - 21.05.2018 19:00:00 (CEST)Vaestmarkum, Suède (2260): visibility: 15.05.2018 19:00:00 - 21.05.2018 19:00:00 (CEST)Vaestmarkum, Suède (2260): Quantités de précipitations: 15.05.2018 19:00:00 - 21.05.2018 19:00:00 (CEST)
Date & Time tt [°C] td [°C] ff [km/h] ff [knt] fx [km/h] fx [knt] dd ppp [hPa] vv [km] rr [mm]
21.05.2018 19:00:00 - - - - - - - - - -
21.05.2018 18:00:00 22,7 7,3 9 5 15 8 SSE 1020,7 30 0,0
21.05.2018 17:00:00 21,8 8,0 6 4 21 12 SE 1021,0 21 0,0
21.05.2018 16:00:00 22,3 8,0 10 6 20 11 SE 1021,0 33 0,0
21.05.2018 15:00:00 22,0 7,8 7 4 22 12 ESE 1021,0 31 0,0
21.05.2018 14:00:00 23,3 8,6 8 4 25 13 ESE 1020,9 36 0,0
21.05.2018 13:00:00 24,2 6,9 8 5 18 10 S 1020,6 32 0,0
21.05.2018 12:00:00 23,5 3,4 6 3 18 10 W 1020,8 24 0,0
21.05.2018 11:00:00 23,0 5,9 3 2 15 8 E 1020,9 34 0,0
21.05.2018 10:00:00 21,6 0,7 2 1 10 6 NNW 1020,9 40 0,0
21.05.2018 09:00:00 20,6 5,0 3 2 13 7 W 1020,9 42 0,0
21.05.2018 08:00:00 19,4 6,2 6 3 14 8 W 1020,9 39 0,0
21.05.2018 07:00:00 14,6 8,8 2 1 6 3 NNW 1021,0 33 0,0
21.05.2018 06:00:00 9,3 7,4 0 0 3 1 N 1021,3 49 0,0
21.05.2018 05:00:00 4,9 4,9 2 1 4 2 WNW 1021,0 38 0,0
21.05.2018 04:00:00 4,4 4,4 2 1 5 3 W 1020,9 35 0,0
21.05.2018 03:00:00 5,2 5,2 0 0 4 2 N 1020,6 46 0,0
21.05.2018 02:00:00 6,4 5,8 3 2 5 3 WNW 1020,1 50 0,0
21.05.2018 01:00:00 7,8 7,2 3 2 5 3 NW 1019,8 50 0,0
21.05.2018 00:00:00 9,3 8,5 0 0 4 2 N 1019,6 49 0,0
20.05.2018 23:00:00 11,4 9,1 3 1 4 2 NW 1019,4 50 0,0
20.05.2018 22:00:00 12,7 8,8 0 0 4 2 N 1019,4 50 0,0
20.05.2018 21:00:00 15,1 8,3 0 0 3 2 N 1018,7 50 0,0
20.05.2018 20:00:00 16,2 7,1 3 1 6 3 S 1018,3 50 0,0
20.05.2018 19:00:00 17,4 6,3 3 2 10 6 SE 1018,2 43 0,0
20.05.2018 18:00:00 18,5 7,0 4 2 13 7 SE 1018,6 33 0,0
20.05.2018 17:00:00 18,2 6,7 5 3 11 6 ESE 1019,0 39 0,0
20.05.2018 16:00:00 18,0 7,1 5 3 18 10 SE 1019,4 35 0,0
20.05.2018 15:00:00 19,3 7,4 8 4 22 12 SE 1019,4 45 0,0
20.05.2018 14:00:00 18,9 6,7 8 5 18 10 SE 1019,7 33 0,0
20.05.2018 13:00:00 17,4 5,7 6 3 14 8 SE 1020,2 33 0,0
20.05.2018 12:00:00 16,4 5,7 6 3 16 9 ESE 1020,6 29 0,0
20.05.2018 11:00:00 15,9 3,7 7 4 15 8 SE 1021,1 33 0,0
20.05.2018 10:00:00 15,1 4,5 11 6 19 11 S 1021,6 36 0,0
20.05.2018 09:00:00 15,2 4,6 6 4 16 9 ESE 1021,6 40 0,0
20.05.2018 08:00:00 14,0 6,1 5 3 9 5 S 1021,9 43 0,0
20.05.2018 07:00:00 9,6 6,3 0 0 4 2 N 1022,4 50 0,0
20.05.2018 06:00:00 5,9 4,5 0 0 7 4 N 1023,0 50 0,0
20.05.2018 05:00:00 4,6 3,6 4 2 7 4 NW 1022,8 50 0,0
20.05.2018 04:00:00 3,0 2,9 3 2 5 3 NW 1022,9 50 0,0
20.05.2018 03:00:00 3,5 2,8 3 2 6 3 WNW 1023,0 50 0,0
20.05.2018 02:00:00 3,7 3,0 4 2 5 3 W 1022,7 48 0,0
20.05.2018 01:00:00 4,4 3,2 4 2 6 3 WNW 1022,6 50 0,0
20.05.2018 00:00:00 5,7 3,5 2 1 6 3 NW 1022,0 50 0,0
19.05.2018 23:00:00 6,6 3,9 3 2 6 4 WNW 1021,7 50 0,0
19.05.2018 22:00:00 8,9 4,9 3 1 5 3 W 1020,9 50 0,0
19.05.2018 21:00:00 15,2 2,7 5 3 21 11 NW 1020,2 50 0,0
19.05.2018 20:00:00 16,5 4,8 6 3 12 7 S 1019,4 46 0,0
19.05.2018 19:00:00 17,2 4,2 6 4 14 7 SE 1019,1 40 0,0
19.05.2018 18:00:00 17,3 3,9 10 5 16 9 SSE 1019,0 43 0,0
19.05.2018 17:00:00 18,3 3,4 8 4 32 17 S 1018,8 35 0,0
19.05.2018 16:00:00 19,6 1,1 4 2 27 15 N 1018,4 50 0,0
19.05.2018 15:00:00 19,5 2,4 11 6 26 14 W 1018,7 40 0,0
19.05.2018 14:00:00 18,0 0,6 9 5 20 11 SW 1019,0 33 0,0
19.05.2018 13:00:00 16,9 0,5 9 5 24 13 WSW 1019,4 31 0,0
19.05.2018 12:00:00 16,3 0,4 7 4 27 15 WNW 1019,9 36 0,0
19.05.2018 11:00:00 15,6 0,6 8 5 26 14 NNW 1020,2 39 0,0
19.05.2018 10:00:00 14,7 -0,6 7 4 22 12 W 1020,6 36 0,0
19.05.2018 09:00:00 13,6 -0,8 11 6 21 11 W 1020,6 45 0,0
19.05.2018 08:00:00 13,0 0,0 2 1 6 4 E 1020,8 46 0,0
19.05.2018 07:00:00 8,8 2,1 0 0 3 1 N 1021,1 47 0,0
19.05.2018 06:00:00 4,1 0,6 0 0 5 3 N 1021,4 48 0,0
19.05.2018 05:00:00 -0,5 -0,5 3 2 5 3 NNW 1021,7 50 0,0
19.05.2018 04:00:00 -0,7 -1,3 4 2 6 3 NW 1021,8 50 0,0
19.05.2018 03:00:00 -0,3 -1,1 3 1 6 3 NW 1021,7 50 0,0
19.05.2018 02:00:00 -0,2 -0,9 3 1 5 3 NW 1021,6 50 0,0
19.05.2018 01:00:00 0,3 -0,1 4 2 5 3 NW 1021,6 50 0,0
19.05.2018 00:00:00 1,3 0,6 3 1 5 3 NNW 1021,4 50 0,0
18.05.2018 23:00:00 3,0 0,7 3 1 5 3 WNW 1021,0 50 0,0
18.05.2018 22:00:00 5,6 1,1 2 1 5 3 WNW 1020,5 50 0,0
18.05.2018 21:00:00 9,5 0,7 3 1 16 9 NW 1019,8 50 0,0
18.05.2018 20:00:00 14,0 -2,4 9 5 22 12 NW 1019,1 43 0,0
18.05.2018 19:00:00 14,6 -2,8 8 4 25 14 N 1018,9 46 0,0
18.05.2018 18:00:00 14,9 -2,1 11 6 29 16 NNW 1018,8 36 0,0
18.05.2018 17:00:00 15,2 -1,8 10 5 31 17 NNW 1018,7 45 0,0
18.05.2018 16:00:00 15,5 -0,7 13 7 35 19 NW 1018,5 33 0,0
18.05.2018 15:00:00 15,4 0,4 16 9 35 19 NW 1018,6 36 0,0
18.05.2018 14:00:00 14,8 -0,9 13 7 32 17 N 1018,6 46 0,0
18.05.2018 13:00:00 14,8 0,2 10 6 34 18 NNW 1018,6 36 0,0
18.05.2018 12:00:00 13,9 0,5 14 7 35 19 NNW 1018,8 28 0,0
18.05.2018 11:00:00 12,6 0,7 15 8 41 22 NW 1019,1 34 0,0
18.05.2018 10:00:00 11,5 0,0 12 7 37 20 NNW 1019,1 45 0,0
18.05.2018 09:00:00 10,2 0,8 14 8 32 18 NNW 1019,2 45 0,0
18.05.2018 08:00:00 9,5 0,4 10 6 32 17 NW 1019,0 45 0,0
18.05.2018 07:00:00 8,1 -0,4 13 7 32 17 NW 1019,1 44 0,0
18.05.2018 06:00:00 6,9 -2,5 15 8 29 16 NW 1019,2 38 0,0
18.05.2018 05:00:00 6,1 -2,0 12 7 30 16 NW 1019,2 50 0,0
18.05.2018 04:00:00 6,2 -2,7 9 5 35 19 NW 1019,0 50 0,0
18.05.2018 03:00:00 7,1 -4,3 14 7 29 16 NW 1018,5 50 0,0
18.05.2018 02:00:00 7,2 -4,2 12 6 34 19 NW 1018,4 50 0,0
18.05.2018 01:00:00 5,5 -4,4 8 5 16 9 NW 1018,7 50 0,0
18.05.2018 00:00:00 1,1 0,7 4 2 8 4 NNW 1019,1 49 0,0
17.05.2018 23:00:00 2,3 1,1 3 1 6 3 W 1018,8 50 0,0
17.05.2018 22:00:00 4,8 2,0 4 2 6 4 W 1018,3 50 0,0
17.05.2018 21:00:00 8,4 2,4 3 2 5 3 NW 1017,8 50 0,0
17.05.2018 20:00:00 11,4 2,7 0 0 14 8 N 1017,3 43 0,0
17.05.2018 19:00:00 13,5 -1,7 7 4 28 15 NNW 1017,3 46 0,0
17.05.2018 18:00:00 13,7 -0,4 7 4 22 12 NNW 1017,3 50 0,0
17.05.2018 17:00:00 13,6 -1,2 9 5 23 13 NNW 1017,4 50 0,0
17.05.2018 16:00:00 14,4 -1,7 7 4 21 11 N 1017,8 39 0,0
17.05.2018 15:00:00 13,3 -0,4 8 5 18 10 N 1018,3 40 0,0
17.05.2018 14:00:00 12,1 0,5 8 4 27 15 NNW 1018,9 31 0,0
17.05.2018 13:00:00 10,3 0,3 8 5 27 15 NNW 1019,2 46 0,0
17.05.2018 12:00:00 9,8 -0,1 9 5 30 16 NNW 1019,5 44 0,0
17.05.2018 11:00:00 11,3 0,1 13 7 28 15 NNW 1019,5 43 0,0
17.05.2018 10:00:00 10,4 -0,1 11 6 30 16 NW 1020,1 37 0,0
17.05.2018 09:00:00 9,7 0,6 11 6 24 13 N 1020,2 42 0,0
17.05.2018 08:00:00 8,9 0,1 12 6 30 16 NNW 1020,2 39 0,0
17.05.2018 07:00:00 7,6 0,1 15 8 34 19 NNW 1020,2 44 0,0
17.05.2018 06:00:00 6,8 0,9 13 7 28 15 NW 1020,1 47 0,0
17.05.2018 05:00:00 6,8 1,3 9 5 29 16 NNW 1019,6 50 0,0
17.05.2018 04:00:00 7,2 1,5 9 5 35 19 NNW 1019,5 48 0,0
17.05.2018 03:00:00 7,6 2,1 17 9 39 21 NNW 1019,8 35 0,1
17.05.2018 02:00:00 8,2 2,9 14 7 32 17 NW 1019,8 50 0,0
17.05.2018 01:00:00 9,4 2,5 16 9 39 21 NW 1019,0 50 0,0
17.05.2018 00:00:00 9,9 2,0 12 7 41 22 NW 1018,8 50 0,0
16.05.2018 23:00:00 10,5 2,1 19 10 41 22 NW 1018,6 50 0,0
16.05.2018 22:00:00 11,3 2,3 14 8 51 28 NW 1017,8 50 0,0
16.05.2018 21:00:00 13,0 3,4 18 10 35 19 NW 1017,1 50 0,0
16.05.2018 20:00:00 14,7 4,9 13 7 48 26 NW 1016,0 50 0,0
16.05.2018 19:00:00 16,9 6,1 16 9 45 24 NW 1015,4 49 0,0
16.05.2018 18:00:00 19,6 7,0 22 12 44 24 WNW 1014,2 43 0,0
16.05.2018 17:00:00 23,8 6,1 6 3 21 11 SSW 1013,2 45 0,0
16.05.2018 16:00:00 23,1 5,5 11 6 24 13 SE 1012,9 31 0,0
16.05.2018 15:00:00 23,5 6,3 8 4 18 10 ESE 1013,0 29 0,0
16.05.2018 14:00:00 23,6 5,0 8 4 21 11 SE 1013,3 27 0,0
16.05.2018 13:00:00 23,1 5,0 8 4 17 9 SSE 1013,6 50 0,0
16.05.2018 12:00:00 22,8 7,7 7 4 17 9 SSE 1013,9 31 0,0
16.05.2018 11:00:00 21,6 6,7 7 4 14 8 SE 1014,3 31 0,0
16.05.2018 10:00:00 20,6 7,6 5 3 10 5 ESE 1014,6 41 0,0
16.05.2018 09:00:00 18,4 5,9 5 3 10 5 SE 1014,9 30 0,0
16.05.2018 08:00:00 17,1 7,2 2 1 5 3 E 1015,2 32 0,0
16.05.2018 07:00:00 12,5 7,8 0 0 3 2 N 1015,8 38 0,0
16.05.2018 06:00:00 7,7 6,8 2 1 5 3 NNW 1016,6 38 0,0
16.05.2018 05:00:00 3,8 3,8 3 2 5 3 NW 1017,3 23 0,0
16.05.2018 04:00:00 3,5 3,5 4 2 6 4 WNW 1017,7 14 0,0
16.05.2018 03:00:00 3,8 3,8 4 2 6 4 WNW 1018,0 11 0,0
16.05.2018 02:00:00 4,6 4,6 4 2 6 3 WNW 1018,1 12 0,0
16.05.2018 01:00:00 5,3 5,3 4 2 6 3 NW 1018,3 15 0,0
16.05.2018 00:00:00 6,2 5,9 3 2 6 3 NW 1018,6 21 0,0
15.05.2018 23:00:00 7,8 6,6 2 1 4 2 WNW 1018,6 35 0,0
15.05.2018 22:00:00 10,2 8,0 2 1 5 3 W 1018,5 45 0,0
15.05.2018 21:00:00 14,1 9,1 0 0 9 5 N 1018,0 44 0,0
15.05.2018 20:00:00 18,8 8,4 7 4 13 7 S 1017,9 39 0,0
15.05.2018 19:00:00 20,9 8,2 6 3 14 7 SSE 1018,0 32 0,0

tt = Température de l'air
td = dewpoint
ff = Vitesse du vent
fx = gusts
dd = Direction du vent
ppp = reduced air pressure
vv = visibility
rr = Quantités de précipitations

stations d'obs. à proximité